Temp
3 3 4 4 4 4 4 4 4 4 4 5 4 4 4 4 4 5 4 6 6 6 7 7 8 9 9 10 9 10 10 12 11 11 13 16 16 16 16 17 16 17 15 16 17
3 3 3 3 4 4 4 4 4 4 4 4 4 4 4 4 4 4 6 6 6 6 6 7 7 8 8 9 10 10 10 10 12 12 13 15 16 17 16 15 15 17 17 14 15
3 3 3 3 3 3 4 4 4 4 4 4 4 3 3 3 3 5 5 6 5 6 5 6 6 7 8 8 9 10 8 11 13 14 14 14 14 16 14 14 15 16 17 15 14
3 3 3 3 3 3 3 4 3 2 3 4 3 3 3 3 3 5 4 4 5 5 5 6 7 6 7 7 9 9 10 12 13 13 13 13 13 13 14 17 16 17 17 15 15
2 2 2 2 3 3 3 3 2 3 3 3 3 3 3 3 4 4 4 3 3 4 5 5 6 6 7 7 8 10 10 12 12 12 13 14 12 13 14 15 15 17 16 16 16
2 2 2 3 3 3 3 2 2 2 3 3 3 3 2 2 4 4 4 4 3 3 4 4 6 7 7 8 8 10 10 11 12 12 12 12 12 13 14 15 15 15 16 16 15
2 2 2 3 3 3 3 3 3 4 3 2 2 2 3 4 4 4 4 4 4 4 4 4 5 8 7 8 10 10 9 10 10 11 11 13 12 11 14 15 16 16 16 17 15
2 2 2 3 3 3 3 4 3 4 3 3 3 3 3 4 4 4 4 4 4 4 4 3 5 6 6 8 9 8 9 8 10 10 12 12 10 11 13 14 14 16 16 16 14
2 2 2 3 3 3 3 3 3 4 3 3 3 3 4 4 4 4 4 4 4 4 3 3 4 5 7 7 7 8 8 8 9 9 11 10 10 11 13 14 13 16 16 13 14
2 2 2 2 3 4 3 3 3 3 3 3 3 3 4 4 4 4 4 3 4 3 4 3 5 6 6 7 7 7 7 10 9 9 10 9 10 11 11 13 11 12 14 13 13
2 2 2 2 3 4 3 3 3 3 3 2 2 3 4 4 5 4 4 3 4 3 2 0 5 5 6 7 8 7 7 8 9 9 10 8 10 10 11 11 11 11 12 12 13
3 4 3 3 3 4 3 3 3 2 3 3 3 4 4 4 4 4 4 4 4 3 1 2 5 7 8 6 8 8 8 8 8 9 10 8 9 10 10 11 13 11 12 13 14
5 5 5 4 3 3 3 3 2 3 2 3 3 3 4 4 4 4 4 4 3 2 2 2 6 7 5 6 7 8 9 7 8 8 9 8 8 9 10 12 13 13 14 14 15
6 5 5 4 3 3 3 3 2 2 -3 3 3 3 3 3 3 3 4 4 3 3 2 3 5 6 4 5 7 8 9 9 8 8 8 9 8 7 9 10 9 12 13 14 14
7 6 5 4 3 2 2 2 2 2 0 3 2 2 3 3 2 3 3 4 3 3 3 3 5 4 4 5 8 8 9 9 8 6 7 7 7 7 8 9 11 12 12 13 14
7 6 5 4 3 2 1 2 2 -1 1 2 2 2 2 2 2 2 3 4 3 3 3 3 3 6 5 4 8 8 8 8 7 7 5 6 7 6 7 9 10 11 13 14 15
7 6 5 4 3 2 1 1 -1 0 3 4 3 1 1 1 1 2 2 1 1 1 2 3 5 6 6 4 7 8 7 8 8 8 7 6 6 9 8 8 9 9 13 13 14
7 6 5 4 2 2 1 -1 0 3 -0 4 4 3 2 3 2 3 3 -0 1 2 1 4 5 6 5 5 6 7 6 4 6 7 6 5 6 8 8 9 10 12 13 13 13
7 6 5 4 3 2 1 -0 2 1 4 3 4 2 4 4 3 3 2 1 2 3 4 5 6 5 5 6 6 6 6 6 4 3 4 6 6 7 8 7 8 9 10 12 13
7 6 5 4 2 2 -1 3 1 4 3 4 4 4 3 4 4 3 3 4 5 3 5 6 6 6 4 6 5 6 6 6 5 4 6 6 6 8 10 9 8 7 7 9 10
7 6 5 5 3 2 -0 -0 2 5 4 4 4 4 5 5 4 4 5 5 6 4 5 5 6 6 4 5 6 7 5 6 5 3 4 5 7 5 8 8 6 6 8 8 9
7 1 5 5 2 -1 -0 5 6 5 5 4 4 4 5 6 4 5 6 6 5 6 5 6 6 6 6 6 6 7 7 6 4 5 3 1 6 8 6 5 6 7 7 8 9
7 6 5 5 0 -1 2 5 6 6 6 5 5 5 6 7 7 6 6 8 7 6 6 7 6 6 6 6 6 6 6 6 4 2 4 4 6 7 6 6 6 7 8 8 9
7 -0 5 5 3 2 2 2 5 7 6 7 6 6 6 7 7 7 4 7 8 8 8 8 6 6 6 7 6 5 5 6 4 1 5 3 5 7 8 8 7 7 8 8 9
6 -1 -1 -2 -1 -1 1 3 4 5 6 7 6 5 5 5 6 6 7 6 7 9 7 7 5 5 6 6 5 6 5 5 4 6 5 6 6 7 8 7 7 8 8 8 8
4 2 1 -1 -0 -1 1 2 2 3 4 3 5 4 6 5 6 6 6 7 7 8 7 5 5 5 4 6 6 6 5 5 6 6 5 6 5 6 9 8 7 8 8 8 8
2 2 -0 0 -1 -0 -0 0 1 2 3 4 4 2 3 5 6 7 6 6 6 7 6 6 4 4 4 6 6 5 5 5 6 5 6 5 8 8 8 7 8 8 8 9 10
Height
1507 1505 1502 1500 1497 1495 1493 1491 1488 1486 1485 1483 1482 1481 1481 1481 1481 1482 1481 1483 1485 1487 1487 1486 1489 1490 1493 1496 1498 1499 1501 1495 1499 1501 1498 1498 1500 1502 1504 1507 1512 1515 1516 1514 1514
1506 1503 1501 1499 1495 1492 1490 1487 1485 1483 1481 1479 1479 1479 1478 1479 1479 1478 1480 1479 1481 1483 1485 1485 1487 1490 1492 1494 1496 1495 1495 1494 1490 1494 1496 1496 1498 1500 1504 1504 1510 1513 1515 1512 1514
1505 1502 1500 1495 1493 1490 1487 1484 1481 1478 1476 1474 1474 1476 1477 1477 1478 1474 1473 1472 1477 1481 1483 1485 1487 1489 1489 1493 1492 1491 1494 1491 1489 1492 1494 1497 1498 1499 1500 1504 1506 1510 1513 1516 1516
1503 1500 1496 1493 1491 1487 1485 1481 1477 1474 1473 1471 1470 1473 1475 1477 1480 1473 1472 1469 1473 1477 1479 1482 1485 1486 1488 1489 1488 1491 1490 1489 1490 1491 1493 1495 1497 1498 1498 1497 1502 1506 1511 1514 1518
1501 1498 1494 1491 1488 1485 1482 1478 1475 1472 1470 1468 1469 1470 1473 1475 1475 1473 1472 1471 1472 1473 1472 1479 1482 1484 1483 1485 1488 1489 1488 1489 1490 1491 1492 1494 1494 1496 1494 1495 1498 1503 1509 1512 1514
1498 1495 1492 1490 1487 1483 1479 1475 1471 1469 1467 1467 1467 1469 1473 1476 1474 1472 1471 1472 1472 1473 1472 1476 1478 1481 1482 1482 1486 1485 1488 1488 1489 1491 1493 1494 1495 1495 1494 1494 1498 1502 1508 1512 1513
1498 1494 1492 1488 1486 1483 1478 1474 1470 1468 1467 1466 1468 1470 1474 1476 1474 1473 1473 1472 1472 1472 1472 1475 1478 1478 1481 1479 1481 1483 1489 1488 1490 1491 1494 1494 1497 1494 1493 1494 1494 1501 1507 1510 1512
1496 1493 1490 1486 1484 1481 1477 1474 1471 1469 1470 1470 1470 1472 1473 1474 1473 1473 1474 1473 1473 1472 1472 1471 1474 1478 1476 1476 1479 1484 1486 1494 1488 1490 1492 1494 1497 1493 1493 1493 1492 1499 1505 1509 1509
1494 1491 1488 1486 1484 1480 1477 1475 1474 1472 1472 1472 1473 1472 1473 1473 1473 1473 1474 1474 1473 1470 1468 1470 1472 1475 1476 1476 1482 1483 1486 1488 1489 1488 1491 1494 1495 1490 1492 1493 1493 1493 1503 1508 1508
1492 1489 1486 1484 1481 1479 1477 1476 1475 1474 1474 1474 1473 1476 1474 1475 1473 1473 1474 1474 1472 1468 1467 1470 1469 1471 1473 1471 1475 1478 1487 1482 1488 1489 1491 1494 1494 1490 1490 1492 1495 1496 1500 1506 1508
1491 1486 1484 1483 1481 1480 1477 1476 1479 1477 1474 1477 1476 1474 1474 1475 1474 1473 1473 1474 1472 1469 1472 1469 1463 1465 1468 1470 1471 1478 1486 1487 1488 1486 1490 1495 1494 1493 1494 1494 1495 1499 1504 1508 1506
1489 1485 1483 1481 1479 1477 1475 1475 1473 1474 1474 1475 1475 1476 1475 1475 1475 1473 1474 1476 1473 1473 1473 1470 1460 1464 1464 1473 1472 1475 1481 1487 1488 1486 1489 1496 1495 1489 1491 1493 1492 1495 1498 1505 1504
1488 1485 1482 1480 1479 1478 1477 1475 1474 1474 1475 1476 1475 1475 1475 1476 1474 1473 1474 1474 1473 1474 1473 1472 1461 1463 1472 1473 1472 1472 1474 1484 1485 1488 1491 1495 1497 1491 1485 1490 1491 1491 1493 1496 1497
1487 1485 1482 1481 1481 1479 1478 1478 1477 1476 1483 1477 1476 1475 1475 1474 1475 1472 1472 1475 1474 1472 1471 1472 1465 1466 1473 1475 1471 1471 1471 1477 1484 1488 1497 1493 1501 1493 1485 1485 1485 1485 1484 1486 1489
1487 1485 1482 1479 1479 1479 1480 1478 1478 1478 1497 1475 1474 1473 1473 1475 1475 1473 1472 1473 1473 1473 1475 1472 1467 1471 1476 1474 1468 1467 1468 1475 1483 1493 1495 1499 1503 1490 1483 1483 1473 1477 1481 1484 1488
1486 1484 1481 1480 1479 1478 1478 1478 1479 1490 1488 1472 1470 1471 1474 1473 1474 1473 1472 1473 1476 1474 1471 1471 1470 1471 1476 1473 1463 1465 1471 1480 1486 1493 1508 1496 1499 1490 1484 1473 1471 1470 1471 1475 1480
1485 1483 1481 1479 1480 1479 1477 1478 1488 1492 1472 1468 1466 1468 1472 1473 1474 1473 1472 1475 1475 1478 1475 1470 1469 1470 1470 1473 1467 1468 1475 1481 1491 1494 1493 1493 1498 1479 1472 1467 1464 1465 1464 1467 1472
1484 1483 1481 1479 1479 1477 1477 1480 1493 1473 1479 1467 1466 1468 1468 1466 1469 1469 1471 1477 1473 1473 1477 1469 1469 1469 1470 1472 1468 1466 1472 1492 1495 1490 1492 1497 1491 1472 1461 1461 1459 1460 1462 1462 1466
1483 1482 1481 1479 1478 1477 1479 1488 1477 1476 1465 1466 1463 1466 1460 1461 1464 1465 1468 1471 1464 1466 1462 1461 1462 1469 1470 1470 1474 1472 1475 1479 1494 1503 1505 1489 1482 1463 1457 1457 1456 1455 1456 1457 1459
1483 1482 1482 1479 1477 1479 1483 1479 1477 1467 1466 1465 1463 1460 1459 1455 1460 1461 1461 1455 1455 1458 1460 1456 1457 1464 1469 1470 1475 1471 1472 1484 1486 1506 1495 1484 1483 1471 1455 1453 1455 1454 1454 1456 1456
1482 1481 1481 1478 1477 1479 1486 1482 1469 1463 1465 1467 1462 1458 1453 1451 1455 1455 1451 1452 1452 1455 1458 1457 1457 1465 1472 1473 1469 1468 1474 1476 1482 1494 1496 1498 1474 1462 1458 1454 1453 1452 1452 1454 1456
1482 1482 1480 1478 1480 1478 1479 1469 1466 1461 1462 1465 1463 1459 1453 1449 1452 1450 1446 1447 1448 1450 1456 1456 1457 1462 1467 1469 1467 1464 1466 1470 1486 1488 1497 1512 1481 1456 1457 1455 1452 1450 1452 1455 1460
1481 1479 1478 1478 1484 1483 1474 1469 1464 1461 1458 1458 1458 1456 1451 1448 1448 1445 1446 1444 1446 1448 1449 1450 1458 1462 1468 1470 1468 1467 1467 1470 1479 1488 1487 1496 1476 1455 1454 1452 1451 1452 1454 1457 1460
1482 1484 1478 1477 1480 1481 1478 1471 1465 1458 1455 1454 1455 1452 1450 1447 1447 1446 1448 1445 1445 1448 1447 1447 1454 1458 1461 1455 1458 1467 1467 1467 1475 1495 1480 1483 1470 1456 1453 1452 1451 1453 1456 1460 1462
1485 1490 1489 1489 1483 1482 1479 1471 1466 1463 1457 1455 1455 1455 1454 1452 1450 1447 1444 1447 1446 1446 1447 1449 1455 1456 1455 1455 1459 1460 1462 1464 1468 1465 1471 1463 1466 1457 1454 1453 1451 1452 1456 1459 1462
1490 1492 1490 1488 1484 1481 1478 1476 1475 1472 1471 1463 1457 1457 1453 1453 1451 1450 1448 1446 1446 1446 1447 1449 1457 1456 1464 1457 1457 1458 1460 1461 1460 1458 1466 1462 1462 1453 1451 1450 1451 1452 1455 1457 1460
1492 1492 1491 1489 1484 1484 1484 1480 1477 1475 1463 1462 1462 1462 1456 1452 1449 1448 1448 1447 1447 1447 1448 1451 1458 1462 1467 1457 1457 1461 1454 1456 1454 1454 1455 1463 1441 1448 1448 1450 1450 1450 1453 1454 1456
Wind_Speed
16 16 15 17 18 19 20 20 19 19 18 19 17 15 13 13 16 18 17 19 15 11 12 10 8 12 10 9 9 6 2 13 11 9 7 12 9 12 7 7 2 5 19 20 13
18 17 16 18 18 17 18 19 22 21 21 18 17 16 13 13 13 17 20 21 18 14 10 10 5 10 8 8 6 6 8 6 5 4 4 8 13 11 7 4 1 8 13 13 10
17 17 16 18 16 18 19 20 22 22 18 17 16 12 12 9 10 9 9 21 21 21 16 13 8 6 7 6 8 6 4 4 2 13 8 8 3 7 8 2 5 4 7 12 5
16 19 18 19 18 19 20 22 21 19 18 15 10 6 8 4 4 3 4 10 19 21 19 23 13 4 6 6 8 4 9 6 4 8 9 7 7 4 14 19 13 8 8 19 12
17 18 19 17 18 18 21 21 20 17 13 10 6 8 4 3 9 8 11 4 4 6 24 25 19 6 6 8 3 11 4 9 2 8 9 13 7 5 15 16 20 25 21 20 22
18 18 19 15 17 20 21 20 17 13 9 6 3 8 4 1 3 8 3 11 8 8 11 27 11 19 4 6 9 13 13 6 11 5 7 7 5 6 8 11 18 23 23 19 23
19 19 17 13 16 19 20 16 12 10 8 7 8 5 2 3 1 6 6 6 3 10 9 23 21 18 10 3 14 1 12 5 3 7 4 6 2 6 5 6 17 28 27 23 27
19 18 16 12 14 16 15 12 9 10 10 8 6 3 2 5 3 5 3 4 5 9 10 17 17 19 9 3 7 4 3 6 5 7 5 7 8 5 11 9 13 32 27 28 25
20 17 16 13 13 13 8 7 7 7 6 4 3 2 2 5 4 7 9 6 4 11 4 18 9 14 12 5 5 4 6 10 4 10 3 6 2 9 17 13 14 30 33 29 25
19 16 16 14 11 9 3 4 5 5 6 6 4 2 6 4 3 1 3 2 4 8 5 3 10 6 5 6 14 12 4 9 8 6 2 4 3 4 23 21 16 20 28 27 28
18 16 15 13 7 8 2 2 1 1 5 2 3 2 3 4 1 2 1 2 3 6 4 7 7 16 12 8 3 11 7 6 4 4 5 4 5 4 11 17 19 21 10 29 30
17 15 14 11 4 5 2 3 5 5 4 3 2 2 2 1 0 4 3 2 2 3 3 4 13 11 6 11 5 16 13 5 2 3 3 6 7 8 8 15 24 28 34 33 32
14 13 11 9 3 4 1 3 6 6 3 1 1 2 1 1 1 1 1 2 2 1 1 5 1 12 5 11 11 11 19 6 6 4 3 5 5 7 4 11 23 29 34 38 31
11 11 10 7 3 6 2 0 4 2 4 0 1 2 2 2 2 4 2 1 1 4 2 2 3 7 6 4 9 7 9 8 9 7 4 2 5 6 8 10 9 27 30 37 40
8 10 9 6 6 4 3 1 2 2 4 1 2 2 1 3 1 2 2 1 2 2 2 1 4 6 1 4 8 4 11 7 5 5 5 1 1 6 3 11 21 19 21 27 30
5 9 8 6 7 5 2 3 2 5 4 0 1 1 2 3 1 1 2 3 2 2 0 3 4 3 6 10 0 5 12 9 5 3 2 6 6 5 5 9 5 14 29 32 31
4 8 8 6 5 4 1 3 4 4 3 1 3 3 3 4 3 3 2 1 2 2 0 2 4 2 5 3 3 2 7 4 3 3 4 3 5 9 4 6 7 9 18 23 30
1 6 10 7 3 2 0 4 4 3 4 2 2 4 4 8 4 8 4 3 5 4 3 5 5 6 4 3 1 4 4 4 6 5 3 3 6 6 7 11 19 21 18 16 16
5 6 10 9 3 2 1 3 5 4 1 2 1 3 5 5 3 5 6 4 7 11 4 4 3 4 2 3 2 3 2 4 6 3 3 4 5 9 4 9 11 12 14 22 21
6 6 6 9 6 1 3 4 2 2 2 2 3 5 3 6 6 7 8 5 3 9 5 1 4 4 2 5 5 6 8 3 1 3 2 3 3 5 5 6 4 6 11 12 15
7 3 4 9 6 1 2 5 4 6 5 3 3 3 5 4 6 5 4 2 7 8 6 4 2 4 7 3 4 4 3 4 3 3 4 0 4 6 5 5 9 6 10 13 20
5 2 3 9 3 0 1 3 4 5 2 4 3 3 3 2 5 5 4 2 9 11 8 6 3 3 2 2 6 1 4 4 4 3 3 3 5 2 5 7 8 9 11 17 22
10 3 2 5 0 3 7 5 4 3 3 4 4 5 2 3 3 2 1 2 10 9 6 6 2 4 4 2 2 2 3 4 5 3 6 4 4 2 4 6 2 9 15 23 25
6 3 2 1 4 3 4 5 5 11 5 2 4 3 3 2 3 1 1 2 9 7 12 4 2 3 4 3 5 5 5 6 6 3 4 6 6 12 9 5 4 8 18 22 24
9 2 2 4 4 6 4 3 6 5 5 6 1 4 3 4 5 3 1 4 5 3 3 3 3 2 2 1 2 2 5 10 9 8 8 2 9 11 8 7 9 14 20 23 23
7 6 4 4 10 5 6 6 8 8 6 9 5 11 3 3 1 3 2 3 3 2 2 2 1 3 1 3 2 3 7 10 13 10 7 11 12 6 12 6 6 15 21 25 25
11 8 4 4 6 3 1 4 6 10 10 9 14 8 10 6 5 4 2 2 2 1 3 2 4 2 2 0 0 5 7 12 7 5 12 9 14 5 2 5 13 18 24 27 26
Wind_Direction
345 332 329 334 320 319 318 319 308 304 301 294 291 292 285 279 269 267 256 250 235 232 222 200 193 199 201 212 212 185 178 213 205 176 195 195 196 213 196 157 28 50 352 310 297
343 344 347 326 326 332 328 317 311 310 302 291 287 283 284 283 283 276 273 258 241 218 225 211 175 194 186 203 203 197 212 219 211 178 193 194 209 201 182 187 246 287 351 18 194
345 342 331 320 321 331 329 321 319 320 306 298 275 278 280 281 296 283 301 243 228 233 218 225 217 230 179 192 195 208 207 208 220 188 170 181 195 184 153 197 167 122 315 347 313
342 338 332 326 330 327 329 323 321 320 312 301 283 261 268 276 263 289 32 46 219 225 217 232 223 226 176 191 203 228 208 174 15 212 164 177 162 206 225 218 185 206 273 325 310
338 336 333 339 336 337 328 327 327 321 319 314 285 228 242 232 260 294 260 308 53 240 207 208 214 214 182 177 206 220 202 192 72 198 186 172 182 211 231 233 223 231 247 301 314
337 333 334 348 339 338 331 332 335 326 320 327 325 158 197 242 8 344 309 274 297 321 222 203 219 219 260 183 185 191 234 190 215 236 182 155 187 166 249 259 241 238 249 281 310
336 337 342 345 339 334 336 347 3 13 12 90 140 151 212 317 102 7 98 66 341 314 310 203 223 209 232 168 192 92 197 223 209 223 220 142 117 221 225 225 232 233 244 275 297
335 336 340 335 333 335 346 8 31 53 100 109 108 122 294 8 216 248 267 9 27 6 283 209 210 226 217 161 121 155 117 182 199 159 242 179 232 215 194 203 230 223 237 260 297
337 340 338 332 333 339 353 38 62 72 81 79 110 106 57 39 74 231 257 303 349 354 239 187 184 207 205 187 115 174 185 188 157 178 146 184 218 225 196 191 216 201 226 253 293
335 341 335 340 329 346 347 49 82 85 85 63 91 69 52 20 57 74 214 267 339 356 55 290 194 192 185 194 184 176 139 176 180 201 183 196 257 323 183 178 192 192 218 262 276
337 342 334 334 327 352 335 174 138 122 62 41 337 58 107 67 47 8 132 190 333 30 37 287 168 205 183 232 188 145 134 132 192 176 143 202 222 255 193 175 173 179 215 258 263
338 345 339 340 327 353 346 217 168 142 110 20 301 320 50 36 33 16 222 289 298 11 353 309 199 180 202 226 227 164 164 172 140 132 130 188 225 241 178 209 194 187 193 222 246
338 356 351 344 311 331 45 181 153 143 95 53 332 273 255 338 186 254 299 304 7 244 292 288 173 150 59 207 221 179 184 172 146 129 63 113 286 250 238 190 219 221 207 217 232
338 356 360 350 323 318 280 360 160 199 77 271 273 242 177 162 273 260 289 305 315 328 326 247 50 152 111 251 230 161 182 142 121 132 179 182 260 256 227 244 205 222 212 216 221
331 355 3 343 328 301 281 238 220 287 26 200 263 241 149 167 118 289 206 186 288 287 279 40 110 105 145 237 241 168 154 124 111 101 116 141 248 261 155 226 233 235 230 234 230
316 345 5 356 347 319 255 228 194 39 286 75 205 178 157 131 189 215 230 172 179 260 241 327 317 164 197 269 55 139 106 67 61 85 317 191 175 257 196 217 207 225 232 234 236
292 342 2 1 3 13 81 157 27 102 35 235 215 164 158 203 193 212 187 342 174 104 245 300 159 109 119 272 41 161 114 125 145 201 214 155 181 251 229 233 207 234 243 235 234
267 1 8 360 20 356 266 55 74 228 236 208 232 200 196 169 203 183 182 263 243 212 167 186 156 168 114 218 46 144 131 147 164 189 178 111 224 246 233 250 251 248 241 253 238
273 305 3 360 352 315 284 47 208 206 234 223 192 233 202 190 199 177 190 221 198 202 205 134 122 131 86 144 279 149 159 146 104 35 73 207 291 293 261 259 254 259 247 249 245
325 285 319 349 346 300 71 263 255 230 109 235 264 219 234 187 190 190 184 181 206 184 227 281 105 122 62 49 277 237 154 75 38 125 222 274 274 239 281 293 292 269 241 228 209
333 305 322 344 334 246 149 236 276 281 209 229 283 285 253 179 195 198 192 223 201 176 177 333 84 110 97 226 203 130 116 85 118 125 163 292 262 217 251 285 291 262 240 212 188
328 4 323 345 321 232 239 224 304 292 103 260 277 276 262 209 188 224 190 227 185 143 164 214 116 117 128 224 235 129 150 150 129 197 95 135 275 290 274 278 279 255 197 187 177
333 285 299 337 17 333 314 300 262 277 223 171 266 216 286 297 293 156 68 108 165 177 189 180 156 116 138 151 356 206 190 125 102 92 193 157 254 248 318 338 310 224 191 179 176
344 360 315 26 44 10 334 278 332 304 260 226 289 306 313 305 318 175 118 318 107 197 235 140 123 172 175 207 135 184 191 180 148 144 174 215 288 307 314 312 274 215 195 190 184
18 56 9 320 347 321 262 281 304 327 326 311 338 355 326 310 345 13 123 170 251 175 101 167 186 115 345 171 115 182 190 192 198 195 192 208 220 248 266 274 241 209 196 189 191
26 4 339 308 304 306 352 4 347 344 338 313 331 328 312 285 301 307 315 23 122 294 116 20 136 112 19 139 190 257 222 204 218 230 258 256 281 220 277 267 205 205 198 197 200
33 358 336 304 326 357 350 300 306 317 298 257 341 336 331 300 292 274 265 285 245 147 149 104 131 98 259 116 228 285 214 195 205 197 213 219 244 252 267 216 229 209 207 207 211